Location: Bergnershof
(48.9468°N, 10.9431°E)
Time: 05:11:38
(UTC+00:00)

Cosmos 1943 Rocket - Pass Details

Date: 03 March 2021
Orbit: 811 x 844 km, 71.0° (Epoch: 11 April)

Event Time Altitude Azimuth Distance (km) Brightness Sun altitude
Rises 18:59:05 0° 334° (NNW) 3,416 5.9 -19.8°
Reaches altitude 10° 19:03:01 10° 1° (N) 2,477 4.8 -20.4°
Maximum altitude 19:05:43 13° 30° (NNE) 2,240 4.2 -20.8°
Enters shadow 19:06:42 13° 41° (NE) 2,272 4.2 -21.0°
